Tracking 29892 objects as of 21-Nov-2024
HD Live streaming from Space Station
objects crossing your sky now

STARLINK-4711

Track STARLINK-4711 now!
10-day predictions
STARLINK-4711 is classified as:


NORAD ID: 53701
Int'l Code: 2022-107B
Perigee: 545.8 km
Apogee: 547.9 km
Inclination: 53.2 °
Period: 95.4 minutes
Semi major axis: 6917 km
RCS: Unknown
Launch date: September 5, 2022
Source: United States (US)
Launch site: AIR FORCE EASTERN TEST RANGE (AFETR)
Your satellite tracking list
Your tracking list is empty




NASA's NSSDC Master Catalog

Two Line Element Set (TLE):
1 53701U 22107B   24325.70206351  .00001162  00000-0  91072-4 0  9991
2 53701  53.2163 211.5178 0001515  86.1257 273.9908 15.08842950123303
Source of the keplerian elements: AFSPC